Change the Weather History Date:

Saturday, December 28, 2013

  Actual Average Record
Temperature  
Mean Temperature 40 °F -  
Max Temperature 51 °F 39 °F 64 °F (1999)
Min Temperature 30 °F 20 °F 14 °F (2012)
Degree Days  
Heating Degree Days 24    
Moisture  
Dew Point 29 °F    
Average Humidity 66    
Maximum Humidity 80    
Minimum Humidity 47    
Precipitation  
Precipitation 0.00 in - - ()
Sea Level Pressure  
Sea Level Pressure 30.01 in    
Wind  
Wind Speed 12 mph (SSW)    
Max Wind Speed 24 mph    
Max Gust Speed 32 mph    
Visibility 10 miles    
Events      
Averages and records for this station are not official NWS values.
T = Trace of Precipitation, MM = Missing Value Source: NWS Daily Summary

Daily Weather History Graph

Daily Weather History Graph

Search for Another Location

Airport or City:

Trip Planner

Search our weather history database for the weather conditions in past years. The results will help you decide how hot, cold, wet, or windy it might be!

Date:

Astronomy

Dec. 28, 2013 Rise Set
Actual Time 7:44 AM CST 5:17 PM CST
Civil Twilight 7:15 AM CST 5:46 PM CST
Nautical Twilight 6:41 AM CST 6:19 PM CST
Astronomical Twilight 6:09 AM CST 6:51 PM CST
Moon 3:24 AM CST (12/28) 2:07 PM CST (12/28)
Length of Visible Light 10h 31m
Length of Day
9h 32m
Waning Crescent, 19% of the Moon is Illuminated
Dec 28
Waning Crescent
Jan 1
New
Jan 7
First Quarter
Jan 15
Full
Jan 23
Last Quarter

Hourly Weather History & Observations

Time (CST) Temp. Windchill Dew Point Humidity Pressure Visibility Wind Dir Wind Speed Gust Speed Precip Events Conditions
12:15 AM 37.4 °F 29.3 °F 28.4 °F 70% 30.20 in 10.0 mi SSW 12.7 mph - N/A   Clear
12:35 AM 35.6 °F 26.6 °F 28.4 °F 75% 30.19 in 10.0 mi SSW 13.8 mph - N/A   Clear
12:55 AM 35.6 °F 27.1 °F 28.4 °F 75% 30.18 in 10.0 mi SSW 12.7 mph - N/A   Clear
1:15 AM 35.6 °F 26.6 °F 28.4 °F 75% 30.17 in 10.0 mi SSW 13.8 mph - N/A   Clear
1:35 AM 35.6 °F 27.1 °F 28.4 °F 75% 30.17 in 10.0 mi SSW 12.7 mph - N/A   Clear
1:55 AM 35.6 °F 27.5 °F 26.6 °F 70% 30.16 in 10.0 mi SSW 11.5 mph - N/A   Clear
2:15 AM 35.6 °F 27.1 °F 26.6 °F 70% 30.16 in 10.0 mi SSW 12.7 mph - N/A   Clear
2:35 AM 35.6 °F 27.5 °F 26.6 °F 70% 30.16 in 10.0 mi SSW 11.5 mph - N/A   Clear
2:55 AM 35.6 °F 26.6 °F 26.6 °F 70% 30.16 in 10.0 mi SSW 13.8 mph - N/A   Clear
3:15 AM 33.8 °F 24.8 °F 26.6 °F 75% 30.15 in 10.0 mi SSW 12.7 mph - N/A   Clear
3:35 AM 35.6 °F 27.5 °F 26.6 °F 70% 30.14 in 10.0 mi SSW 11.5 mph - N/A   Clear
3:55 AM 33.8 °F 25.8 °F 26.6 °F 75% 30.13 in 10.0 mi SSW 10.4 mph - N/A   Clear
4:15 AM 33.8 °F 25.3 °F 26.6 °F 75% 30.13 in 10.0 mi SSW 11.5 mph - N/A   Clear
4:35 AM 33.8 °F 24.8 °F 26.6 °F 75% 30.12 in 10.0 mi SSW 12.7 mph - N/A   Clear
4:55 AM 33.8 °F 25.3 °F 26.6 °F 75% 30.11 in 10.0 mi SSW 11.5 mph - N/A   Clear
5:15 AM 33.8 °F 24.8 °F 26.6 °F 75% 30.10 in 10.0 mi SSW 12.7 mph - N/A   Clear
5:35 AM 33.8 °F 25.3 °F 24.8 °F 70% 30.10 in 10.0 mi South 11.5 mph - N/A   Clear
5:55 AM 33.8 °F 25.8 °F 24.8 °F 70% 30.09 in 10.0 mi South 10.4 mph - N/A   Clear
6:15 AM 32.0 °F 24.2 °F 24.8 °F 75% 30.10 in 10.0 mi South 9.2 mph - N/A   Clear
6:35 AM 32.0 °F 23.0 °F 24.8 °F 75% 30.09 in 10.0 mi South 11.5 mph - N/A   Clear
6:55 AM 32.0 °F 23.6 °F 24.8 °F 75% 30.09 in 10.0 mi South 10.4 mph - N/A   Clear
7:15 AM 30.2 °F 21.9 °F 24.8 °F 80% 30.08 in 10.0 mi South 9.2 mph - N/A   Clear
7:35 AM 30.2 °F 21.9 °F 23.0 °F 75% 30.09 in 10.0 mi South 9.2 mph - N/A   Clear
7:55 AM 30.2 °F 21.3 °F 24.8 °F 80% 30.09 in 10.0 mi South 10.4 mph - N/A   Clear
8:15 AM 30.2 °F 21.3 °F 24.8 °F 80% 30.08 in 10.0 mi South 10.4 mph - N/A   Clear
8:35 AM 32.0 °F 23.6 °F 24.8 °F 75% 30.08 in 10.0 mi South 10.4 mph - N/A   Clear
8:55 AM 33.8 °F 25.3 °F 24.8 °F 70% 30.08 in 10.0 mi South 11.5 mph - N/A   Clear
9:15 AM 35.6 °F 26.2 °F 26.6 °F 70% 30.08 in 10.0 mi South 15.0 mph - N/A   Clear
9:35 AM 37.4 °F 28.9 °F 26.6 °F 65% 30.07 in 10.0 mi South 13.8 mph - N/A   Clear
9:55 AM 37.4 °F 28.9 °F 26.6 °F 65% 30.07 in 10.0 mi South 13.8 mph - N/A   Clear
10:15 AM 39.2 °F 31.6 °F 28.4 °F 65% 30.06 in 10.0 mi South 12.7 mph - N/A   Clear
10:35 AM 41.0 °F 33.1 °F 28.4 °F 61% 30.06 in 10.0 mi South 15.0 mph - N/A   Clear
10:55 AM 41.0 °F 33.1 °F 28.4 °F 61% 30.05 in 10.0 mi South 15.0 mph - N/A   Clear
11:15 AM 42.8 °F 35.1 °F 28.4 °F 57% 30.04 in 10.0 mi South 16.1 mph - N/A   Clear
11:35 AM 44.6 °F 37.8 °F 30.2 °F 57% 30.02 in 10.0 mi South 15.0 mph - N/A   Clear
11:55 AM 44.6 °F 37.8 °F 30.2 °F 57% 30.01 in 10.0 mi South 15.0 mph 18.4 mph N/A   Clear
12:15 PM 46.4 °F 40.1 °F 30.2 °F 53% 29.99 in 10.0 mi South 15.0 mph - N/A   Clear
12:35 PM 46.4 °F 39.5 °F 30.2 °F 53% 29.98 in 10.0 mi SSW 17.3 mph - N/A   Clear
12:55 PM 48.2 °F - 32.0 °F 54% 29.96 in 10.0 mi SSW 13.8 mph - N/A   Clear
1:15 PM 48.2 °F - 32.0 °F 54% 29.95 in 10.0 mi SSW 16.1 mph - N/A   Clear
1:35 PM 48.2 °F - 32.0 °F 54% 29.93 in 10.0 mi SSW 15.0 mph - N/A   Clear
1:55 PM 50.0 °F - 32.0 °F 50% 29.92 in 10.0 mi South 16.1 mph - N/A   Clear
2:15 PM 50.0 °F - 32.0 °F 50% 29.91 in 10.0 mi SSW 16.1 mph - N/A   Clear
2:35 PM 51.8 °F - 32.0 °F 47% 29.90 in 10.0 mi South 16.1 mph 19.6 mph N/A   Clear
2:55 PM 51.8 °F - 32.0 °F 47% 29.90 in 10.0 mi SSW 15.0 mph - N/A   Clear
3:15 PM 51.8 °F - 32.0 °F 47% 29.89 in 10.0 mi SSW 17.3 mph 21.9 mph N/A   Clear
3:35 PM 51.8 °F - 33.8 °F 50% 29.90 in 10.0 mi South 12.7 mph - N/A   Clear
3:55 PM 50.0 °F - 33.8 °F 54% 29.88 in 10.0 mi South 15.0 mph 23.0 mph N/A   Clear
4:15 PM 50.0 °F - 33.8 °F 54% 29.88 in 10.0 mi South 16.1 mph - N/A   Clear
4:35 PM 48.2 °F - 33.8 °F 58% 29.88 in 10.0 mi South 11.5 mph - N/A   Clear
4:55 PM 46.4 °F 41.1 °F 33.8 °F 62% 29.87 in 10.0 mi South 11.5 mph - N/A   Clear
5:15 PM 46.4 °F 42.4 °F 33.8 °F 62% 29.87 in 10.0 mi South 8.1 mph - N/A   Clear
5:35 PM 42.8 °F 37.5 °F 32.0 °F 66% 29.88 in 10.0 mi South 9.2 mph - N/A   Clear
5:55 PM 41.0 °F 35.8 °F 30.2 °F 65% 29.87 in 10.0 mi South 8.1 mph - N/A   Clear
6:15 PM 39.2 °F 32.5 °F 30.2 °F 70% 29.87 in 10.0 mi South 10.4 mph - N/A   Clear
6:35 PM 39.2 °F 33.0 °F 30.2 °F 70% 29.87 in 10.0 mi South 9.2 mph - N/A   Clear
6:55 PM 39.2 °F 33.6 °F 30.2 °F 70% 29.88 in 10.0 mi South 8.1 mph - N/A   Clear
7:15 PM 42.8 °F 37.5 °F 32.0 °F 66% 29.87 in 10.0 mi South 9.2 mph - N/A   Clear
7:35 PM 42.8 °F 37.0 °F 30.2 °F 61% 29.88 in 10.0 mi South 10.4 mph - N/A   Clear
7:55 PM 42.8 °F 37.5 °F 32.0 °F 66% 29.88 in 10.0 mi South 9.2 mph - N/A   Clear
8:15 PM 42.8 °F 38.6 °F 32.0 °F 66% 29.89 in 10.0 mi South 6.9 mph - N/A   Clear
8:35 PM 42.8 °F 37.0 °F 32.0 °F 66% 29.90 in 10.0 mi SSW 10.4 mph - N/A   Clear
8:55 PM 42.8 °F 38.0 °F 32.0 °F 66% 29.90 in 10.0 mi SSW 8.1 mph - N/A   Clear
9:15 PM 42.8 °F 37.5 °F 32.0 °F 66% 29.91 in 10.0 mi SW 9.2 mph - N/A   Clear
9:35 PM 39.2 °F 34.2 °F 30.2 °F 70% 29.92 in 10.0 mi SW 6.9 mph - N/A   Clear
9:55 PM 39.2 °F 34.2 °F 30.2 °F 70% 29.92 in 10.0 mi WSW 6.9 mph - N/A   Clear
10:15 PM 39.2 °F 35.9 °F 30.2 °F 70% 29.92 in 10.0 mi WSW 4.6 mph - N/A   Clear
10:35 PM 39.2 °F 32.5 °F 30.2 °F 70% 29.94 in 10.0 mi NW 10.4 mph - N/A   Clear
10:55 PM 37.4 °F 29.8 °F 30.2 °F 75% 29.96 in 10.0 mi NNW 11.5 mph - N/A   Clear
11:15 PM 37.4 °F 30.8 °F 30.2 °F 75% 29.96 in 10.0 mi North 9.2 mph - N/A   Mostly Cloudy
11:35 PM 37.4 °F 27.5 °F 30.2 °F 75% 29.98 in 10.0 mi North 18.4 mph 24.2 mph N/A   Overcast
11:55 PM 37.4 °F 26.1 °F 28.4 °F 70% 29.98 in 10.0 mi NNE 24.2 mph 32.2 mph N/A   Overcast